User: anonymous   Login
Location: Poughquag
(41.6090°N, 73.6820°W)
Time: 04:55:52
(UTC-04:00)
Language:

Tiros 1 despin weight - Orbit

View from above orbital plane
View from above orbital plane
View from above satellite
View from above satellite

Ground track
Ground track

The orbit data is extracted from the following two-line orbital elements,

1 00115U 60002D   24150.38293763  .00002353  00000-0  26661-3 0  9995
2 00115  48.1615 163.7815 0030388 139.8380 220.4789 14.89501856406132
Epoch (UTC): 29 May 2024 09:11:25
Eccentricity: 0.0030388
inclination: 48.1615°
perigee height: 578 km
apogee height: 620 km
right ascension of ascending node: 163.7815°
argument of perigee: 139.8380°
revolutions per day: 14.89501856
mean anomaly at epoch: 220.4789°
orbit number at epoch: 40613

The dashed part of the orbit path shows where the satellite is in the earth's shadow,  

DLR